Location: Aalen
(48.8330°N, 10.1000°E)
Time: 07:26:20
(UTC+01:00)

IRIDIUM 33 DEB - Visible Passes

Search period start: 29 January 2022 00:00
Search period end: 08 February 2022 00:00
Orbit: 753 x 836 km, 86.3° (Epoch: 25 January)

Date Brightness Start Highest point End Pass type
(mag) Time Alt. Az. Time Alt. Az. Time Alt. Az.
01 Feb ? 21:04:08 10° N 21:04:31 12° N 21:04:31 12° N visible
02 Feb ? 20:35:32 10° N 20:36:28 15° N 20:36:28 15° N visible
03 Feb ? 20:07:04 10° N 20:08:28 18° N 20:08:28 18° N visible
03 Feb ? 21:48:43 10° NNW 21:49:19 13° NNW 21:49:19 13° NNW visible
04 Feb ? 19:38:44 10° NNE 19:40:32 19° NNE 19:40:32 19° NNE visible
04 Feb ? 21:19:47 10° NNW 21:21:23 19° NNW 21:21:23 19° NNW visible
05 Feb ? 19:10:36 10° NNE 19:12:40 18° NE 19:12:40 18° NE visible
05 Feb ? 20:51:01 10° N 20:53:32 27° NNW 20:53:32 27° NNW visible
06 Feb ? 18:42:47 10° NNE 18:44:54 15° NE 18:44:54 15° NE visible
06 Feb ? 20:22:22 10° N 20:25:46 39° N 20:25:46 39° N visible
06 Feb ? 22:05:13 10° NW 22:06:39 13° NW 22:06:39 13° NW visible
07 Feb ? 19:53:51 10° N 19:58:08 49° NE 19:58:08 49° NE visible
07 Feb ? 21:35:47 10° NNW 21:39:01 21° WNW 21:39:01 21° WNW visible
